Regional Weather Roundup
Issued by NWS

Home | Current Version | Previous Version | Graphics & Text | Print | Product List | Glossary On
Versions: 1 2 3 4 5 6 7 8 9 10 11 12 13 14 15 16 17 18 19 20 21 22 23 24 25 26 27 28 29 30 31 32 33 34 35 36 37 38 39 40 41 42 43 44 45 46 47 48 49 50
000
ASUS43 KLMK 040202
RWRKY
KENTUCKY REGIONAL WEATHER ROUNDUP
NATIONAL WEATHER SERVICE LOUISVILLE KY
1000 PM EDT TUE MAY 03 2016

NOTE "FAIR" INDICATES FEW OR NO CLOUDS BELOW 12,000 FEET
WITH NO SIGNIFICANT WEATHER AND/OR OBSTRUCTIONS TO VISIBILITY.

KYZ001>023-026-027-061>063-070>075-040300-
WESTERN AND SOUTH CENTRAL KENTUCKY

CITY           SKY/WX    TMP DP  RH WIND       PRES   REMARKS
PADUCAH        CLOUDY    56  48  74 SW3       29.94S
HENDERSON      CLOUDY    57  45  62 W3        29.92R
OWENSBORO      CLEAR     56  48  74 CALM      29.92S
HOPKINSVILLE   CLEAR     57  47  69 W3        29.93S
BOWLING GREEN  PTCLDY    55  46  71 W3        29.92S
GLASGOW        NOT AVBL
$$

KYZ024-025-028>034-038-045-046-053-040300-
NORTH CENTRAL KENTUCKY

CITY           SKY/WX    TMP DP  RH WIND       PRES   REMARKS
LOUISVILLE/SDF CLOUDY    58  44  60 W5        29.90S
LOUISVILLE/LOU CLOUDY    57  47  69 CALM      29.90S
FORT KNOX      CLOUDY    53  48  83 SW1       29.89S
$$

KYZ035>037-039>044-047>052-055>060-089>105-040300-
NORTHEAST KENTUCKY

CITY           SKY/WX    TMP DP  RH WIND       PRES   REMARKS
LEXINGTON      CLOUDY    55  49  80 CALM      29.90R
COVINGTON      CLOUDY    53  52  96 SW5       29.87S
FRANKFORT      CLOUDY    55  47  74 CALM      29.89S
$$

KYZ054-064>069-076>088-106>120-040300-
SOUTHEAST KENTUCKY

CITY           SKY/WX    TMP DP  RH WIND       PRES   REMARKS
JACKSON        MOCLDY    53  46  77 CALM      29.88S
LONDON         CLOUDY    57  47  69 W6        29.89S
SOMERSET       NOT AVBL
MIDDLESBORO    NOT AVBL
MONTICELLO     CLOUDY    57  49  74 W3        29.92S
$$




USA.gov is the U.S. government's official web portal to all federal, state and local government web resources and services.